Regional Weather Roundup
Issued by NWS

Home | Current Version | Previous Version | Text Only | Print | Product List | Glossary On
Versions: 1 2 3 4 5 6 7 8 9 10 11 12 13 14 15 16 17 18 19 20 21 22 23 24 25 26 27 28 29 30 31 32 33 34 35 36 37 38 39 40 41 42 43 44 45 46 47 48 49 50
000
ASUS44 KFWD 011715
RWRTX
NORTH TEXAS HOURLY WEATHER ROUNDUP
NATIONAL WEATHER SERVICE FORT WORTH TX
1100 AM CST WED MAR 01 2017

NOTE: "FAIR" INDICATES FEW OR NO CLOUDS BELOW 12,000 FEET WITH NO
SIGNIFICANT WEATHER AND/OR OBSTRUCTIONS TO VISIBILITY.

TXZ118-119-011800-
DALLAS/FORT WORTH METROPLEX

CITY           SKY/WX    TMP DP  RH WIND       PRES   REMARKS
DFW AIRPORT    MOSUNNY   61  25  25 N17G24    30.21R
DALLAS LOVE    MOSUNNY   60  24  25 N13G25    30.22R
FTW MEACHAM    SUNNY     59  24  26 N20G28    30.23R
DAL-EXECUTIVE  SUNNY     60  24  25 N16G29    30.21R
FTW-ALLIANCE   MOSUNNY   59  21  23 N20G25    30.23R
FTW-NAS-JRB    MOSUNNY   59  23  25 N22G28    30.25R
FTW-SPINKS     SUNNY     57  28  33 N21G29    30.24R
ARLINGTON      SUNNY     59  26  28 NW18      30.22R
GRAND PRAIRIE  SUNNY     57  27  30 N14       30.23R
ADDISON        SUNNY     59  25  27 N16G25    30.23R
MESQUITE       SUNNY     59  27  29 N17G25    30.21R
LANCASTER      SUNNY     58  33  39 N15G23    30.22R
$$

TXZ091>094-102>105-117-120-121-131>134-011800-
NORTH CENTRAL TEXAS

CITY           SKY/WX    TMP DP  RH WIND       PRES   REMARKS
SHRMAN/DENISON SUNNY     58  22  25 N16G26    30.24R
GAINESVILLE    SUNNY     57  14  18 N17G24    30.26R
BOWIE          SUNNY     56  16  20 N18G25    30.27R
BRIDGEPORT     MOSUNNY   56  21  25 N15G21    30.28R
DECATUR        SUNNY     57  14  18 N13G21    30.25R
DENTON         SUNNY     58  22  24 N16G28    30.24R
MCKINNEY       SUNNY     58  28  32 N17       30.22R
BONHAM         SUNNY     55  25  30 N14G26    30.21R
GREENVILLE       N/A     59  27  29 N16G25    30.20R
ROCKWALL       SUNNY     59  26  29 N14G22    30.21R
TERRELL        SUNNY     59  28  30 N15G25    30.20R
WAXAHACHIE     SUNNY     58  32  36 N20G28    30.22R
CLEBURNE       SUNNY     59  25  27 N22G29    30.24R
GRANBURY       SUNNY     59  25  27 NW14      30.27R
$$

TXZ083>090-098>101-113>116-127>130-139>142-154-155-011800-
WESTERN NORTH TEXAS

CITY           SKY/WX    TMP DP  RH WIND       PRES   REMARKS
WICHITA FALLS  MOSUNNY   56  16  20 N21       30.29R
WF-KICKAPOO    SUNNY     56  14  19 N20G28    30.31R
VERNON         SUNNY     55   9  16 N18G25    30.32R
ABILENE        SUNNY     52  16  24 N17G24    30.30R
ABILENE-DYESS  SUNNY     54  19  25 NE20G25   30.29R
GRAHAM         SUNNY     55  21  26 N18G25    30.28R
BRECKENRIDGE   SUNNY     57  17  21 NE17      30.30R
CISCO          SUNNY     54  19  26 N13G22    30.28R
RANGER         SUNNY     54  23  30 N18       30.28R
MINERAL WELLS  SUNNY     59  18  20 N16G25    30.25R
STEPHENVILLE   SUNNY     56  22  26 N18G28    30.27R
COMANCHE       SUNNY     56  28  34 N20G26    30.26R
BROWNWOOD      SUNNY     55  25  30 N15G22    30.26R
COLEMAN        SUNNY     57  23  27 N20       30.27R
$$

TXZ143>147-156>162-174-175-011800-
CENTRAL TEXAS

CITY           SKY/WX    TMP DP  RH WIND       PRES   REMARKS
WACO           MOSUNNY   60  38  43 N20       30.20R
WACO-MCGREGOR  PTSUNNY   58  39  49 N12G21    30.21R
HILLSBORO      SUNNY     60  36  41 N20G25    30.21R
CORSICANA      SUNNY     59  36  42 N18G26    30.21R
MEXIA          SUNNY     61  37  40 N22       30.18R
HEARNE         SUNNY     66  45  47 N18G24    30.16R
CAMERON        SUNNY     64  43  47 N20G26    30.18R
TEMPLE         SUNNY     61  39  44 N20G26    30.20R
KILLEEN        MOSUNNY   60  33  36 N21       30.20R
KILLEEN-SKYLRK SUNNY     62  36  37 N17G25    30.20R
FORT HOOD      MOSUNNY   62  34  34 N18G25    30.18R
GATESVILLE     CLOUDY    59  32  36 N18G26    30.24R
HAMILTON       CLOUDY    58  28  32 N21       30.24R
LAMPASAS       MOSUNNY   60  35  38 N15G21    30.22R
$$

TXZ095>097-106>112-122>126-135>138-148>153-164>167-011800-
EAST TEXAS

CITY           SKY/WX    TMP DP  RH WIND       PRES   REMARKS
PARIS          SUNNY     57  30  35 N20G29    30.18R
SULPHUR SPRNGS SUNNY     58  32  37 N22G28    30.20R
MOUNT PLEASANT CLOUDY    60  33  36 NW15      30.18R
GILMER         CLOUDY    59  37  43 NW17      30.15R
MINEOLA        SUNNY     59  34  38 N14G21    30.17R
TYLER          MOSUNNY   62  37  39 N14       30.15R
LONGVIEW       MOSUNNY   65  41  41 N17G23    30.12R
MARSHALL       MOSUNNY   65  38  37 NW15      30.13R
ATHENS         SUNNY     61  34  36 N15G21    30.16R
PALESTINE      MOSUNNY   64  42  43 N17       30.16R
JACKSONVILLE   MOSUNNY   64  43  45 N10G21    30.14R
HENDERSON      MOSUNNY   64  39  39 N10G21    30.14R
CENTER         MOSUNNY   78  56  47 NW13      30.07R
NACOGDOCHES    SUNNY     72  54  53 N15G23    30.07R
LUFKIN         MOSUNNY   75  61  61 N12       30.05R
$$

SUPPLEMENTAL OBSERVATIONS (CENTRAL)

CITY           SKY/WX    TMP DP  RH WIND       PRES   REMARKS
DENISON DAM      N/A     54  23  30 N7          N/A
CADDO GRASSLND   N/A     61  28  29 N9G20       N/A
PAT MAYSE LAKE   N/A     57  25  28 NW17        N/A
GREENVILLE       N/A     57  27  30 N21G26      N/A
CEDAR HILL       N/A     61  28  29 NE10G20     N/A
ATHENS           N/A     63  34  34 N10         N/A
LAKE LIMESTONE   N/A     64  39  39 N17G26      N/A
MCGREGOR         N/A     61  37  41 N10G22      N/A
TEMPLE           N/A     63  37  39 N7G24       N/A
$$

SUPPLEMENTAL OBSERVATIONS (WEST)

CITY           SKY/WX    TMP DP  RH WIND       PRES   REMARKS
MILLERS CREEK    N/A     54  19  26 NE15G23     N/A
POSSUM KINGDOM   N/A     57  21  24 N13G21      N/A
LBJ GRASSLAND    N/A     59  16  18 N14G23      N/A
GRANBURY         N/A     59  27  29 N15G25      N/A
COMANCHE         N/A     57  27  30 N21G28      N/A
HAMBY            N/A     55  19  24 NE15G24     N/A
IVIE RESERVOIR   N/A     57  27  30 N15G22      N/A
COLORADO BEND    N/A     59  30  33 NE13G21     N/A
$$

SUPPLEMENTAL OBSERVATIONS (EAST)

CITY           SKY/WX    TMP DP  RH WIND       PRES   REMARKS
CLARKSVILLE      N/A     59  30  33 N18G26      N/A
CADDO LAKE       N/A    N/A N/A N/A NW8G17      N/A
GILMER           N/A     61  36  39 N13G25      N/A
HENDERSON        N/A     64  39  39 N14G23      N/A
LUFKIN           N/A     75  57  53 MISG        N/A
N SABINE NF      N/A     79  61  53 MISG        N/A
S SABINE NF      N/A     79  63  57 SW5G14      N/A
$$

SUPPLEMENTAL OBSERVATIONS ARE A COLLECTION OF AUTOMATED INSTRUMENTS
THAT ARE MAINTAINED BY A VARIETY OF FEDERAL AND STATE AGENCIES.
CERTAIN ELEMENTS...SUCH AS HUMIDITY VALUES AND SUSTAINED WIND
SPEEDS...MAY BE APPROXIMATED.





USA.gov is the U.S. government's official web portal to all federal, state and local government web resources and services.